TimeMST,TemperatureF,Dew PointF,Humidity,Sea Level PressureIn,VisibilityMPH,Wind Direction,Wind SpeedMPH,Gust SpeedMPH,PrecipitationIn,Events,Conditions,WindDirDegrees,DateUTC
12:15 AM,46.4,28.4,50,29.86,10.0,North,15.0,-,N/A,,Clear,360,2012-12-06 07:15:00
12:35 AM,44.6,26.6,49,29.89,10.0,NW,4.6,-,N/A,,Clear,320,2012-12-06 07:35:00
12:55 AM,42.8,28.4,57,29.89,10.0,West,5.8,-,N/A,,Mostly Cloudy,260,2012-12-06 07:55:00
1:15 AM,44.6,28.4,53,29.89,10.0,WNW,5.8,-,N/A,,Scattered Clouds,300,2012-12-06 08:15:00
1:35 AM,46.4,28.4,50,29.89,10.0,North,12.7,-,N/A,,Clear,350,2012-12-06 08:35:00
1:55 AM,50.0,30.2,47,29.90,10.0,North,16.1,19.6,N/A,,Clear,350,2012-12-06 08:55:00
2:15 AM,50.0,30.2,47,29.89,10.0,NNW,19.6,-,N/A,,Mostly Cloudy,330,2012-12-06 09:15:00
2:35 AM,50.0,28.4,43,29.90,10.0,NNW,16.1,-,N/A,,Mostly Cloudy,340,2012-12-06 09:35:00
2:55 AM,48.2,28.4,46,29.90,10.0,North,17.3,-,N/A,,Mostly Cloudy,360,2012-12-06 09:55:00
3:15 AM,48.2,28.4,46,29.90,10.0,North,18.4,21.9,N/A,,Overcast,350,2012-12-06 10:15:00
3:35 AM,50.0,28.4,43,29.89,10.0,North,21.9,25.3,N/A,,Overcast,360,2012-12-06 10:35:00
3:55 AM,48.2,28.4,46,29.89,10.0,North,21.9,33.4,N/A,,Mostly Cloudy,360,2012-12-06 10:55:00
4:15 AM,46.4,28.4,50,29.90,10.0,North,21.9,25.3,N/A,,Partly Cloudy,360,2012-12-06 11:15:00
4:35 AM,46.4,28.4,50,29.91,10.0,North,18.4,-,N/A,,Scattered Clouds,10,2012-12-06 11:35:00
4:55 AM,46.4,28.4,50,29.92,10.0,North,17.3,-,N/A,,Overcast,10,2012-12-06 11:55:00
5:15 AM,46.4,28.4,50,29.93,10.0,North,18.4,23.0,N/A,,Overcast,10,2012-12-06 12:15:00
5:35 AM,46.4,28.4,50,29.94,9.0,North,16.1,20.7,N/A,,Overcast,10,2012-12-06 12:35:00
5:55 AM,46.4,28.4,50,29.95,10.0,North,11.5,-,N/A,,Overcast,10,2012-12-06 12:55:00
6:35 AM,44.6,28.4,53,29.99,10.0,NE,11.5,19.6,N/A,,Overcast,40,2012-12-06 13:35:00
6:55 AM,44.6,28.4,53,30.00,10.0,NE,12.7,16.1,N/A,,Overcast,50,2012-12-06 13:55:00
7:15 AM,44.6,28.4,53,30.01,10.0,ENE,11.5,-,N/A,,Overcast,70,2012-12-06 14:15:00
7:55 AM,42.8,30.2,61,30.03,10.0,East,11.5,-,N/A,,Overcast,100,2012-12-06 14:55:00
8:15 AM,42.8,30.2,61,30.03,10.0,East,11.5,-,N/A,,Overcast,80,2012-12-06 15:15:00
8:35 AM,42.8,30.2,61,30.03,10.0,East,13.8,18.4,N/A,,Overcast,80,2012-12-06 15:35:00
8:55 AM,41.0,30.2,65,30.04,10.0,East,16.1,19.6,N/A,,Overcast,90,2012-12-06 15:55:00
9:55 AM,42.8,28.4,57,30.07,10.0,ESE,8.1,-,N/A,,Overcast,110,2012-12-06 16:55:00
10:15 AM,42.8,28.4,57,30.08,10.0,ESE,8.1,-,N/A,,Overcast,110,2012-12-06 17:15:00
10:35 AM,42.8,28.4,57,30.07,10.0,ESE,6.9,-,N/A,,Overcast,120,2012-12-06 17:35:00
10:55 AM,44.6,28.4,53,30.06,10.0,SE,6.9,-,N/A,,Overcast,140,2012-12-06 17:55:00
11:15 AM,44.6,28.4,53,30.05,10.0,SE,8.1,-,N/A,,Overcast,130,2012-12-06 18:15:00
11:35 AM,44.6,30.2,57,30.03,10.0,SSE,10.4,16.1,N/A,,Mostly Cloudy,150,2012-12-06 18:35:00
11:55 AM,44.6,28.4,53,30.02,10.0,SSE,12.7,-,N/A,,Overcast,150,2012-12-06 18:55:00
12:15 PM,46.4,28.4,50,30.00,10.0,SE,12.7,-,N/A,,Overcast,130,2012-12-06 19:15:00
12:35 PM,46.4,26.6,46,30.00,10.0,SSE,10.4,16.1,N/A,,Overcast,150,2012-12-06 19:35:00
12:55 PM,46.4,26.6,46,29.97,10.0,SSE,10.4,-,N/A,,Mostly Cloudy,160,2012-12-06 19:55:00
1:15 PM,46.4,26.6,46,29.96,10.0,SSE,12.7,-,N/A,,Partly Cloudy,150,2012-12-06 20:15:00
1:35 PM,46.4,26.6,46,29.96,10.0,SE,10.4,-,N/A,,Mostly Cloudy,130,2012-12-06 20:35:00
1:55 PM,48.2,26.6,43,29.94,10.0,SE,10.4,17.3,N/A,,Mostly Cloudy,140,2012-12-06 20:55:00
2:15 PM,46.4,26.6,46,29.94,10.0,SSE,8.1,-,N/A,,Mostly Cloudy,150,2012-12-06 21:15:00
2:35 PM,46.4,26.6,46,29.93,10.0,ESE,9.2,-,N/A,,Partly Cloudy,120,2012-12-06 21:35:00
2:55 PM,46.4,26.6,46,29.93,10.0,SE,6.9,-,N/A,,Clear,130,2012-12-06 21:55:00
3:35 PM,46.4,26.6,46,29.92,10.0,SE,9.2,-,N/A,,Clear,130,2012-12-06 22:35:00
3:55 PM,44.6,24.8,46,29.92,10.0,ESE,9.2,-,N/A,,Clear,110,2012-12-06 22:55:00
4:15 PM,42.8,24.8,49,29.92,10.0,ESE,6.9,-,N/A,,Clear,110,2012-12-06 23:15:00
4:35 PM,39.2,21.2,49,29.92,10.0,East,6.9,-,N/A,,Clear,100,2012-12-06 23:35:00
4:55 PM,37.4,21.2,52,29.92,10.0,East,5.8,-,N/A,,Clear,100,2012-12-06 23:55:00
5:15 PM,37.4,21.2,52,29.92,10.0,East,5.8,-,N/A,,Clear,80,2012-12-07 00:15:00
5:35 PM,35.6,21.2,56,29.92,10.0,East,5.8,-,N/A,,Clear,80,2012-12-07 00:35:00
5:55 PM,33.8,21.2,60,29.91,10.0,East,5.8,-,N/A,,Clear,90,2012-12-07 00:55:00
6:15 PM,33.8,19.4,56,29.91,10.0,ESE,6.9,-,N/A,,Clear,110,2012-12-07 01:15:00
6:35 PM,30.2,19.4,64,29.91,10.0,East,5.8,-,N/A,,Clear,90,2012-12-07 01:35:00
6:55 PM,30.2,19.4,64,29.92,10.0,East,6.9,-,N/A,,Clear,90,2012-12-07 01:55:00
7:35 PM,30.2,19.4,64,29.92,10.0,East,8.1,-,N/A,,Clear,90,2012-12-07 02:35:00
7:55 PM,33.8,21.2,60,29.91,10.0,East,9.2,-,N/A,,Clear,90,2012-12-07 02:55:00
8:15 PM,30.2,19.4,64,29.90,10.0,East,9.2,-,N/A,,Clear,90,2012-12-07 03:15:00
8:35 PM,30.2,19.4,64,29.90,10.0,East,6.9,-,N/A,,Clear,100,2012-12-07 03:35:00
8:55 PM,30.2,19.4,64,29.90,10.0,East,9.2,-,N/A,,Clear,80,2012-12-07 03:55:00
9:15 PM,28.4,19.4,69,29.90,10.0,ESE,8.1,-,N/A,,Clear,120,2012-12-07 04:15:00
9:35 PM,30.2,19.4,64,29.90,10.0,East,6.9,-,N/A,,Clear,100,2012-12-07 04:35:00
9:55 PM,28.4,19.4,69,29.90,10.0,ESE,3.5,-,N/A,,Clear,110,2012-12-07 04:55:00
10:15 PM,28.4,19.4,69,29.90,10.0,Calm,Calm,-,N/A,,Clear,0,2012-12-07 05:15:00
10:35 PM,26.6,17.6,69,29.90,10.0,North,5.8,-,N/A,,Clear,350,2012-12-07 05:35:00
10:55 PM,28.4,19.4,69,29.89,10.0,Calm,Calm,-,N/A,,Clear,0,2012-12-07 05:55:00
11:15 PM,28.4,19.4,69,29.88,10.0,Calm,Calm,-,N/A,,Clear,0,2012-12-07 06:15:00
11:35 PM,28.4,19.4,69,29.86,10.0,East,3.5,-,N/A,,Clear,90,2012-12-07 06:35:00
11:55 PM,26.6,19.4,74,29.85,10.0,East,4.6,-,N/A,,Clear,80,2012-12-07 06:55:00